This is the latest recevied weather packets stored in our database for station/object EA5JUX. If no packets are shown the sender has not sent any weather packets the latest 10 day(s).
| Time | Temp. | Humidity | Pressure | Rain* | Wind** | Luminosity | Snow |
|---|---|---|---|---|---|---|---|
| 1778174255 | 17.78° C | 83% | 1009.8 hPa | 0 mm | - | - | - |
| 1778173937 | 17.78° C | 83% | 1009.8 hPa | 0 mm | - | - | - |
| 1778173636 | 17.22° C | 83% | 1009.6 hPa | 0 mm | - | - | - |
| 1778173337 | 17.22° C | 83% | 1009.9 hPa | 0 mm | - | - | - |
| 1778173037 | 17.22° C | 83% | 1009.9 hPa | 0 mm | - | - | - |
| 1778172737 | 17.22° C | 83% | 1009.7 hPa | 0 mm | - | - | - |
| 1778172436 | 17.78° C | 82% | 1009.8 hPa | 0 mm | - | - | - |
| 1778172136 | 17.78° C | 80% | 1009.8 hPa | 0 mm | - | - | - |
| 1778171837 | 18.33° C | 78% | 1009.8 hPa | 0 mm | - | - | - |
| 1778171549 | 18.33° C | 76% | 1009.9 hPa | 0 mm | - | - | - |
| 1778171237 | 18.33° C | 75% | 1009.7 hPa | 0 mm | - | - | - |
| 1778170937 | 18.33° C | 75% | 1009.6 hPa | 0 mm | - | - | - |
| 1778170636 | 18.33° C | 77% | 1009.7 hPa | 0 mm | - | - | - |
| 1778170337 | 18.33° C | 79% | 1009.6 hPa | 0 mm | - | - | - |
| 1778170036 | 17.22° C | 81% | 1009.5 hPa | 0 mm | - | - | - |
| 1778169737 | 17.22° C | 84% | 1009.5 hPa | 0 mm | - | - | - |
| 1778169436 | 16.67° C | 85% | 1009.4 hPa | 0 mm | - | - | - |
| 1778169137 | 16.67° C | 85% | 1009.4 hPa | 0 mm | - | - | - |
| 1778168837 | 16.67° C | 86% | 1009.2 hPa | 0.25 mm | - | - | - |
| 1778168537 | 16.67° C | 87% | 1009.2 hPa | 0.25 mm | - | - | - |
| 1778168258 | 16.67° C | 88% | 1009.3 hPa | 0.25 mm | - | - | - |
| 1778167936 | 16.67° C | 88% | 1009.4 hPa | 0.51 mm | - | - | - |
| 1778167637 | 16.11° C | 88% | 1009.5 hPa | 1.27 mm | - | - | - |
| 1778167337 | 16.11° C | 88% | 1009.2 hPa | 1.78 mm | - | - | - |
| 1778167037 | 16.11° C | 89% | 1009.5 hPa | 2.29 mm | - | - | - |
* Rain latest hour (hover to see other rain measurements)
** Current wind speed in m/s (hover to see current wind gust speed)